AISAT

Satellite information

Favourite Embed

Satellite Type and Status

PAYLOADIN ORBIT

Key statistics

Satellite AISAT at a glance.

Uptime

3967

Days in orbit

Revolutions

≈ 15.0

Per day

Orbit

SSO

Sun Synchronous Orbit

Inclination

98.3

Latest

Satellite identification and parameters

Extended collection of information and parameters for AISAT.

Object identification

Identified? True

Debris? False

Object name: AISAT

International designator: 2014-034B

Object number (NORAD): 40054

Object ID (CCSDS): 40054

Country: GERMANY (GER)

Current information (Y/N): Y

RCS size: MEDIUM

Orbital parameters

Period: 96.037 minutes

Inclination: 98.2927 deg

SMA: 6946.835 km

Apoapsis: 576.626 km

Periapsis: 560.773 km

RAAN: 9.9786 deg

Eccentricy: 0.001141

Argument of periapsis: 121.1506 deg

Mean anomaly: 239.0835 deg

Mean motion: 14.99416602 rev/day

Mean motion (dot): 0.00008903 rev/day2

B* drag term: 0.00073082 1/REarth

Two-line elements (TLE)

Creation date: May 10, 2025, 2:32 a.m.

Reference frame: TEME

Reference center: EARTH

Epoch: May 9, 2025, 2:37 p.m. UTC

TLE line 0: 0 AISAT

TLE line 1: 1 40054U 14034B 25129.60969320 .00008903 00000-0 73082-3 0 9992

TLE line 2: 2 40054 98.2927 9.9786 0011410 121.1506 239.0835 14.99416602586555

Live tracking on map

Real-time ground track for satellite AISAT.

In-orbit conjunctions

There are no conjunctions computed for AISAT, at the moment. Check back to stay up to date, as we update our databases every day.

Go to all conjunctions

Associated space launch

AISAT was lifted into orbit during the mission ‘PSLV-CA | SPOT-7, CanX-4, CanX-5, AISat, VELOX-I’, on board a PSLV space rocket.

The launch took place on June 30, 2014, 4:22 a.m. from Satish Dhawan Space Centre First Launch Pad.

For more information about the launch, click the button.

Launch to space PSLV-CA | SPOT-7, CanX-4, CanX-5, AISat, VELOX-I
PSLV-CA | SPOT-7, CanX-4, CanX-5, AISat, VELOX-I

Agency: N/A

Status: Launch Successful

Launch date: June 30, 2014, 4:22 a.m. UTC

Rocket: PSLV

Launch pad: Satish Dhawan Space Centre First Launch Pad

Location: Satish Dhawan Space Centre, India

...

Latest news about this satellite

There are no fresh news available about this satellite. Check back as we update our databases every day.


Newsletter sign-up

Weekly statistics, charts and insights to help you stay on top of the space industry.